This is the latest recevied weather packets stored in our database for station/object KE8URB. If no packets are shown the sender has not sent any weather packets the latest 10 day(s).
| Time | Temp. | Humidity | Pressure | Rain* | Wind** | Luminosity | Snow |
|---|---|---|---|---|---|---|---|
| 1787665866 | 18.89° C | 89% | 1020.7 hPa | 0 mm | - | 31 W/m² | - |
| 1787665562 | 18.33° C | 89% | 1020.7 hPa | 0 mm | - | 32 W/m² | - |
| 1787665261 | 18.33° C | 90% | 1020.6 hPa | 0 mm | - | 32 W/m² | - |
| 1787664958 | 17.78° C | 90% | 1020.7 hPa | 0 mm | - | 33 W/m² | - |
| 1787664654 | 17.78° C | 91% | 1020.6 hPa | 0 mm | - | 260 W/m² | - |
| 1787664354 | 17.22° C | 91% | 1020.7 hPa | 0 mm | - | 52 W/m² | - |
| 1787664054 | 16.67° C | 92% | 1020.4 hPa | 0 mm | - | 31 W/m² | - |
| 1787663749 | 16.67° C | 92% | 1020.3 hPa | 0 mm | - | 32 W/m² | - |
| 1787663444 | 16.67° C | 92% | 1020.7 hPa | 0 mm | - | 34 W/m² | - |
| 1787663140 | 16.67° C | 93% | 1020.4 hPa | 0 mm | - | 32 W/m² | - |
| 1787662836 | 16.11° C | 93% | 1020.4 hPa | 0 mm | - | 33 W/m² | - |
| 1787662535 | 16.11° C | 94% | 1020.4 hPa | 0 mm | - | 32 W/m² | - |
| 1787662231 | 16.11° C | 94% | 1020.4 hPa | 0 mm | - | 33 W/m² | - |
| 1787661927 | 15.56° C | 94% | 1020.5 hPa | 0 mm | - | 30 W/m² | - |
| 1787661626 | 15.56° C | 95% | 1020.6 hPa | 0 mm | - | 28 W/m² | - |
| 1787661325 | 15.56° C | 96% | 1020.4 hPa | 0 mm | - | 25 W/m² | - |
| 1787661025 | 15° C | 96% | 1020.6 hPa | 0 mm | - | 25 W/m² | - |
| 1787660720 | 15° C | 98% | 1020.3 hPa | 0 mm | - | 23 W/m² | - |
| 1787660415 | 14.44° C | 98% | 1020.5 hPa | 0 mm | - | 23 W/m² | - |
| 1787660114 | 14.44° C | 99% | 1020.5 hPa | 0 mm | - | 23 W/m² | - |
| 1787659814 | 14.44° C | 99% | 1020.4 hPa | 0 mm | - | 23 W/m² | - |
| 1787659512 | 14.44° C | 99% | 1020.5 hPa | 0 mm | - | 20 W/m² | - |
| 1787659208 | 13.89° C | 99% | 1020.3 hPa | 0 mm | - | 17 W/m² | - |
| 1787658902 | 13.89° C | 99% | 1020.5 hPa | 0 mm | - | 16 W/m² | - |
| 1787658602 | 13.89° C | 99% | 1020.3 hPa | 0 mm | - | 14 W/m² | - |
* Rain latest hour (hover to see other rain measurements)
** Current wind speed in m/s (hover to see current wind gust speed)